User: anonymous   Login
Location: Caltech
(34.1382°N, 118.1253°W)
Time: 16:46:05
(UTC-07:00)
Language:

ALOS - Orbit

View from above orbital plane
View from above orbital plane
View from above satellite
View from above satellite

Ground track
Ground track

The orbit data is extracted from the following two-line orbital elements,

1 28931U 06002A   15084.90863547  .00000584  00000-0  12617-3 0  9998
2 28931 097.9439 137.6045 0001785 063.0325 297.1059 14.61742614488472
Epoch (UTC): 25 March 2015 21:48:26
Eccentricity: 0.0001785
inclination: 97.9439°
perigee height: 686 km
apogee height: 689 km
right ascension of ascending node: 137.6045°
argument of perigee: 63.0325°
revolutions per day: 14.61742614
mean anomaly at epoch: 297.1059°
orbit number at epoch: 48847

The dashed part of the orbit path shows where the satellite is in the earth's shadow,  

DLR